Weather History for Marion, VA

Change the Weather History Date:

Monday, May 7, 2012

  Actual Average (KGEV) Record (KGEV)
Temperature  
Mean Temperature 69 °F -  
Max Temperature 78 °F 69 °F 82 °F (1986)
Min Temperature 61 °F 44 °F 27 °F (1968)
Cooling Degree Days 4    
Growing Degree Days 19 (Base 50)    
Moisture  
Dew Point 60 °F    
Average Humidity 73    
Maximum Humidity 94    
Minimum Humidity 55    
Precipitation  
Precipitation 0.00 in - - ()
Sea Level Pressure  
Sea Level Pressure 30.06 in    
Wind  
Wind Speed 4 mph (East)    
Max Wind Speed 9 mph    
Max Gust Speed 21 mph    
Visibility 10 miles    
Events Rain , Thunderstorm    
Averages and records for this station are not official NWS values.
T = Trace of Precipitation, MM = Missing Value Source: NWS Daily Summary

Daily Weather History Graph

Daily Weather History Graph

Search for Another Location

Airport:

Trip Planner

Search our weather history database for the weather conditions in past years. The results will help you decide how hot, cold, wet, or windy it might be!

Date:

Astronomy

May. 07, 2012 Rise Set
Actual Time 6:24 AM EDT 8:19 PM EDT
Civil Twilight 5:56 AM EDT 8:48 PM EDT
Nautical Twilight 5:21 AM EDT 9:22 PM EDT
Astronomical Twilight 4:44 AM EDT 9:59 PM EDT
Moon 10:28 PM EDT (5/7) 7:30 AM EDT (5/7)
Length of Visible Light 14h 52m
Length of Day
13h 55m
Waning Gibbous, 97% of the Moon is Illuminated
May 7
Waning Gibbous
May 12
Last Quarter
May 20
New
May 28
First Quarter
Jun 4
Full

Hourly Weather History & Observations

Time (EDT) Temp. Dew Point Humidity Pressure Visibility Wind Dir Wind Speed Gust Speed Precip Events Conditions
12:15 AM 64.8 °F 61.9 °F 90% 30.10 in 10.0 mi Calm Calm - N/A   Overcast
12:35 AM 64.9 °F 61.9 °F 90% 30.11 in 10.0 mi Calm Calm - N/A   Overcast
12:55 AM 65.3 °F 61.5 °F 88% 30.11 in 10.0 mi Calm Calm - N/A   Mostly Cloudy
1:15 AM 65.5 °F 61.7 °F 88% 30.11 in 10.0 mi NNE 6.9 mph - N/A   Overcast
1:35 AM 66.7 °F 60.6 °F 81% 30.09 in 10.0 mi SE 3.5 mph - N/A   Overcast
1:55 AM 65.5 °F 61.2 °F 86% 30.09 in 10.0 mi NE 5.8 mph - N/A   Overcast
2:15 AM 65.5 °F 61.0 °F 85% 30.09 in 10.0 mi East 6.9 mph - N/A   Overcast
2:35 AM 63.9 °F 61.0 °F 90% 30.08 in 10.0 mi ENE 4.6 mph - N/A   Mostly Cloudy
2:55 AM 62.8 °F 60.6 °F 93% 30.08 in 7.0 mi East 3.5 mph - N/A   Scattered Clouds
3:15 AM 62.8 °F 60.3 °F 91% 30.06 in 10.0 mi ENE 6.9 mph - N/A   Scattered Clouds
3:35 AM 63.5 °F 59.9 °F 88% 30.06 in 10.0 mi NNE 8.1 mph - N/A   Clear
3:55 AM 63.0 °F 60.1 °F 90% 30.06 in 10.0 mi NNE 8.1 mph - N/A   Scattered Clouds
4:15 AM 63.0 °F 60.1 °F 90% 30.06 in 10.0 mi NE 6.9 mph - N/A   Mostly Cloudy
4:35 AM 62.6 °F 59.9 °F 91% 30.08 in 10.0 mi ENE 6.9 mph - N/A   Overcast
4:55 AM 61.9 °F 59.9 °F 93% 30.07 in 10.0 mi East 4.6 mph - N/A   Mostly Cloudy
5:15 AM 61.5 °F 59.7 °F 94% 30.08 in 7.0 mi Calm Calm - N/A   Mostly Cloudy
5:35 AM 62.1 °F 59.9 °F 93% 30.07 in 7.0 mi NE 3.5 mph - N/A   Overcast
5:55 AM 64.0 °F 59.0 °F 84% 30.07 in 10.0 mi NE 4.6 mph - N/A   Overcast
6:15 AM 64.8 °F 58.8 °F 81% 30.08 in 10.0 mi ENE 5.8 mph - N/A   Overcast
6:35 AM 63.7 °F 59.5 °F 86% 30.07 in 4.0 mi Calm Calm - N/A   Overcast
6:55 AM 62.8 °F 59.4 °F 89% 30.09 in 10.0 mi NE 3.5 mph - N/A   Overcast
7:15 AM 62.6 °F 59.7 °F 90% 30.09 in 10.0 mi ENE 3.5 mph - N/A   Mostly Cloudy
7:35 AM 63.5 °F 60.3 °F 89% 30.09 in 10.0 mi East 4.6 mph - N/A   Mostly Cloudy
7:55 AM 65.1 °F 60.6 °F 85% 30.09 in 10.0 mi Calm Calm - N/A   Scattered Clouds
8:15 AM 66.7 °F 61.0 °F 82% 30.10 in 10.0 mi ENE 4.6 mph - N/A   Scattered Clouds
8:35 AM 67.1 °F 59.9 °F 78% 30.10 in 10.0 mi East 4.6 mph - N/A   Clear
8:55 AM 68.7 °F 59.5 °F 72% 30.10 in 10.0 mi East 3.5 mph - N/A   Clear
9:15 AM 69.8 °F 58.6 °F 68% 30.10 in 10.0 mi Calm Calm - N/A   Clear
9:35 AM 70.2 °F 58.5 °F 66% 30.10 in 10.0 mi Calm Calm - N/A   Clear
9:55 AM 71.8 °F 59.2 °F 64% 30.10 in 10.0 mi WSW 4.6 mph - N/A   Scattered Clouds
10:15 AM 72.0 °F 58.6 °F 63% 30.10 in 10.0 mi WSW 3.5 mph - N/A   Scattered Clouds
10:35 AM 72.1 °F 57.9 °F 61% 30.09 in 10.0 mi WSW 4.6 mph - N/A   Mostly Cloudy
10:55 AM 72.7 °F 58.3 °F 60% 30.09 in 10.0 mi North 3.5 mph - N/A   Mostly Cloudy
11:15 AM 73.9 °F 58.5 °F 58% 30.09 in 10.0 mi North 3.5 mph - N/A   Mostly Cloudy
11:35 AM 74.8 °F 60.3 °F 60% 30.09 in 10.0 mi East 4.6 mph - N/A   Mostly Cloudy
11:55 AM 75.4 °F 58.8 °F 56% 30.09 in 10.0 mi Calm Calm - N/A   Scattered Clouds
12:15 PM 74.5 °F 59.7 °F 60% 30.09 in 10.0 mi ENE 5.8 mph - N/A   Scattered Clouds
12:35 PM 77.7 °F 61.7 °F 58% 30.09 in 10.0 mi Calm Calm - N/A   Scattered Clouds
12:55 PM 74.3 °F 59.7 °F 60% 30.08 in 10.0 mi SE 3.5 mph - N/A   Mostly Cloudy
1:15 PM 73.4 °F 61.2 °F 65% 30.08 in 10.0 mi Calm Calm - N/A Rain Rain
1:35 PM 73.0 °F 62.1 °F 68% 30.07 in 10.0 mi Calm Calm - N/A Rain Light Rain
1:55 PM 72.5 °F 61.3 °F 68% 30.07 in 10.0 mi SE 6.9 mph - N/A   Overcast
2:15 PM 73.2 °F 62.2 °F 68% 30.06 in 10.0 mi SE 5.8 mph - N/A   Mostly Cloudy
2:35 PM 73.4 °F 61.9 °F 67% 30.06 in 10.0 mi Calm Calm - N/A   Mostly Cloudy
2:55 PM 73.9 °F 62.6 °F 68% 30.05 in 10.0 mi ESE 3.5 mph - N/A   Overcast
3:15 PM 75.2 °F 60.3 °F 60% 30.04 in 10.0 mi ESE 3.5 mph - N/A   Overcast
3:35 PM 75.2 °F 59.4 °F 58% 30.03 in 10.0 mi SSE 5.8 mph - N/A   Overcast
3:55 PM 76.5 °F 59.4 °F 55% 30.02 in 10.0 mi South 9.2 mph - N/A Thunderstorm Mostly Cloudy
4:15 PM 75.2 °F 59.5 °F 58% 30.02 in 10.0 mi South 9.2 mph - N/A   Mostly Cloudy
4:35 PM 72.9 °F 59.5 °F 63% 30.02 in 10.0 mi SSE 5.8 mph - N/A   Mostly Cloudy
4:55 PM 73.4 °F 61.0 °F 65% 30.01 in 10.0 mi ESE 4.6 mph - N/A   Overcast
5:15 PM 73.2 °F 60.8 °F 65% 30.01 in 10.0 mi SE 4.6 mph - N/A   Mostly Cloudy
5:35 PM 73.2 °F 60.6 °F 65% 30.01 in 10.0 mi ESE 4.6 mph - N/A   Mostly Cloudy
5:55 PM 73.4 °F 59.5 °F 62% 30.01 in 10.0 mi ESE 4.6 mph - N/A   Mostly Cloudy
6:15 PM 72.5 °F 59.5 °F 64% 30.01 in 10.0 mi ESE 4.6 mph - N/A   Scattered Clouds
6:35 PM 72.5 °F 58.6 °F 62% 30.00 in 10.0 mi ESE 5.8 mph - N/A   Scattered Clouds
6:55 PM 70.7 °F 58.3 °F 65% 29.99 in 10.0 mi ESE 6.9 mph - N/A   Scattered Clouds
7:15 PM 70.0 °F 58.3 °F 66% 29.99 in 10.0 mi ESE 5.8 mph - N/A   Scattered Clouds
7:35 PM 69.1 °F 58.1 °F 68% 30.00 in 10.0 mi East 3.5 mph - N/A   Scattered Clouds
7:55 PM 68.4 °F 58.1 °F 70% 30.00 in 10.0 mi SE 5.8 mph - N/A   Clear
8:15 PM 68.2 °F 57.9 °F 70% 30.01 in 10.0 mi ESE 8.1 mph - N/A   Clear
8:35 PM 67.5 °F 58.1 °F 72% 30.01 in 10.0 mi ESE 5.8 mph - N/A   Mostly Cloudy
8:55 PM 67.6 °F 58.1 °F 71% 30.02 in 10.0 mi East 6.9 mph - N/A   Overcast
9:15 PM 67.8 °F 57.4 °F 69% 30.02 in 10.0 mi East 8.1 mph - N/A   Overcast
9:35 PM 68.0 °F 57.2 °F 68% 30.02 in 10.0 mi ESE 5.8 mph - N/A   Overcast
10:15 PM 67.5 °F 57.7 °F 71% 30.03 in 10.0 mi ENE 4.6 mph - N/A   Overcast
10:35 PM 68.0 °F 57.2 °F 68% 30.04 in 10.0 mi Calm Calm - N/A   Overcast
10:55 PM 68.0 °F 57.2 °F 68% 30.04 in 10.0 mi SE 8.1 mph 20.7 mph N/A   Overcast
11:15 PM 68.0 °F 57.2 °F 68% 30.04 in 10.0 mi SSE 4.6 mph - N/A   Overcast
11:35 PM 67.5 °F 57.6 °F 70% 30.04 in 10.0 mi East 4.6 mph - N/A   Mostly Cloudy
11:55 PM 67.5 °F 57.6 °F 70% 30.03 in 10.0 mi ESE 8.1 mph - N/A   Scattered Clouds